Land O' Lakes, WI

3:07 AM CDT on July 30, 2016 (GMT -0500)
Kings Land O'Lakes

Weather History for KLNL - March, 2014

Change the Weather History Date:

Sunday, March 9, 2014

  Actual Average (KEGV) Record (KEGV)
Temperature  
Mean Temperature 18 °F -  
Max Temperature 40 °F 43 °F 54 °F (1977)
Min Temperature -4 °F 16 °F -11 °F (2003)
Degree Days  
Heating Degree Days 47    
Moisture  
Dew Point 15 °F    
Average Humidity 68    
Maximum Humidity 85    
Minimum Humidity 47    
Precipitation  
Precipitation 0.00 in - - ()
Sea Level Pressure  
Sea Level Pressure 29.75 in    
Wind  
Wind Speed 4 mph (SW)    
Max Wind Speed 15 mph    
Max Gust Speed 23 mph    
Visibility 10 miles    
Events      
Averages and records for this station are not official NWS values.
T = Trace of Precipitation, MM = Missing Value Source: NWS Daily Summary

Daily Weather History Graph

Daily Weather History Graph

Search for Another Location

Airport or City:

Trip Planner

Search our weather history database for the weather conditions in past years. The results will help you decide how hot, cold, wet, or windy it might be!

Date:

Astronomy

Mar. 09, 2014 Rise Set
Actual Time 7:20 AM CDT 6:54 PM CDT
Civil Twilight 6:51 AM CDT 7:24 PM CDT
Nautical Twilight 6:16 AM CDT 7:59 PM CDT
Astronomical Twilight 5:41 AM CDT 8:34 PM CDT
Moon 12:33 PM CDT (3/9) 3:00 AM CDT (3/9)
Length of Visible Light 12h 33m
Length of Day
11h 33m
First Quarter, 61% of the Moon is Illuminated
Mar 9
First Quarter
Mar 16
Full
Mar 23
Last Quarter
Mar 30
New
Apr 7
First Quarter

Hourly Weather History & Observations

Time (CDT) Temp. Windchill Dew Point Humidity Pressure Visibility Wind Dir Wind Speed Gust Speed Precip Events Conditions
12:15 AM -3.1 °F - -6.7 °F 85% 30.06 in 10.0 mi Calm Calm - N/A   Clear
12:35 AM -3.6 °F - -7.8 °F 82% 30.04 in 10.0 mi Calm Calm - N/A   Clear
12:55 AM -4.0 °F - -8.1 °F 82% 30.05 in 10.0 mi Calm Calm - N/A   Clear
1:15 AM -4.4 °F - -8.7 °F 82% 30.04 in 10.0 mi Calm Calm - N/A   Clear
1:35 AM -4.0 °F - -8.1 °F 82% 30.03 in 10.0 mi Calm Calm - N/A   Clear
1:55 AM -4.4 °F - -8.7 °F 82% 30.02 in 10.0 mi Calm Calm - N/A   Clear
3:15 AM -4.0 °F - -8.0 °F 83% 30.01 in 10.0 mi Calm Calm - N/A   Clear
3:35 AM -3.5 °F - -7.6 °F 82% 30.01 in 10.0 mi Calm Calm - N/A   Clear
3:55 AM -4.0 °F - -8.3 °F 82% 29.99 in 10.0 mi Calm Calm - N/A   Scattered Clouds
4:15 AM -3.3 °F - -7.4 °F 82% 29.99 in 10.0 mi Calm Calm - N/A   Scattered Clouds
4:35 AM -2.0 °F - -6.9 °F 80% 29.98 in 10.0 mi Calm Calm - N/A   Mostly Cloudy
4:55 AM 0.5 °F - -3.8 °F 82% 29.98 in 10.0 mi Calm Calm - N/A   Overcast
5:15 AM 1.6 °F - -3.1 °F 81% 29.98 in 10.0 mi Calm Calm - N/A   Scattered Clouds
5:35 AM 3.9 °F -3.4 °F 0.1 °F 84% 29.97 in 10.0 mi South 3.5 mph - N/A   Clear
5:55 AM 8.1 °F 1.4 °F 4.1 °F 84% 29.95 in 10.0 mi South 3.5 mph - N/A   Clear
6:15 AM 9.5 °F 3.0 °F 5.5 °F 84% 29.94 in 10.0 mi South 3.5 mph - N/A   Mostly Cloudy
6:35 AM 10.4 °F 4.0 °F 5.9 °F 82% 29.93 in 10.0 mi SSW 3.5 mph - N/A   Scattered Clouds
6:55 AM 11.8 °F 3.9 °F 7.2 °F 81% 29.92 in 10.0 mi SSW 4.6 mph - N/A   Scattered Clouds
7:15 AM 12.4 °F 4.6 °F 7.3 °F 80% 29.91 in 10.0 mi SSW 4.6 mph - N/A   Mostly Cloudy
7:35 AM 12.9 °F 5.2 °F 7.5 °F 79% 29.91 in 10.0 mi SSW 4.6 mph - N/A   Scattered Clouds
7:55 AM 13.8 °F 6.2 °F 7.7 °F 77% 29.89 in 10.0 mi SSW 4.6 mph - N/A   Scattered Clouds
8:15 AM 14.9 °F 5.0 °F 8.6 °F 76% 29.88 in 10.0 mi SSW 6.9 mph - N/A   Scattered Clouds
8:35 AM 16.2 °F 9.0 °F 10.0 °F 77% 29.87 in 10.0 mi SSW 4.6 mph - N/A   Scattered Clouds
8:55 AM 18.0 °F 8.7 °F 11.3 °F 75% 29.85 in 10.0 mi SW 6.9 mph - N/A   Scattered Clouds
9:15 AM 19.8 °F 10.8 °F 12.6 °F 74% 29.84 in 10.0 mi SSW 6.9 mph - N/A   Clear
9:35 AM 21.7 °F 11.5 °F 13.8 °F 72% 29.82 in 10.0 mi SSW 9.2 mph - N/A   Scattered Clouds
9:55 AM 23.2 °F 14.1 °F 14.7 °F 70% 29.81 in 10.0 mi SW 8.1 mph - N/A   Overcast
10:15 AM 24.6 °F 15.8 °F 14.9 °F 67% 29.79 in 10.0 mi SSW 8.1 mph 16.1 mph N/A   Overcast
10:35 AM 25.9 °F 16.6 °F 15.4 °F 65% 29.77 in 10.0 mi SSW 9.2 mph 16.1 mph N/A   Mostly Cloudy
10:55 AM 27.1 °F 17.5 °F 15.8 °F 62% 29.76 in 10.0 mi SW 10.4 mph 17.3 mph N/A   Overcast
11:15 AM 28.2 °F 18.9 °F 16.5 °F 62% 29.75 in 10.0 mi SSW 10.4 mph 18.4 mph N/A   Mostly Cloudy
11:35 AM 29.8 °F 20.3 °F 17.6 °F 60% 29.72 in 10.0 mi SSW 11.5 mph 16.1 mph N/A   Mostly Cloudy
11:55 AM 30.7 °F 23.3 °F 18.1 °F 60% 29.72 in 10.0 mi SW 8.1 mph 17.3 mph N/A   Mostly Cloudy
12:15 PM 31.5 °F 24.9 °F 18.9 °F 60% 29.70 in 10.0 mi SSW 6.9 mph - N/A   Scattered Clouds
12:35 PM 32.0 °F 24.2 °F 19.4 °F 60% 29.68 in 10.0 mi SSW 9.2 mph 17.3 mph N/A   Scattered Clouds
12:55 PM 32.9 °F 24.7 °F 19.9 °F 59% 29.69 in 10.0 mi SW 10.4 mph 20.7 mph N/A   Mostly Cloudy
1:15 PM 33.8 °F 24.3 °F 20.3 °F 58% 29.67 in 10.0 mi SSW 13.8 mph 19.6 mph N/A   Mostly Cloudy
1:35 PM 34.9 °F 27.1 °F 20.5 °F 56% 29.65 in 10.0 mi SW 10.4 mph 19.6 mph N/A   Overcast
1:55 PM 35.8 °F 27.8 °F 20.7 °F 54% 29.63 in 10.0 mi SSW 11.5 mph 20.7 mph N/A   Scattered Clouds
2:15 PM 37.6 °F 30.0 °F 21.2 °F 52% 29.61 in 10.0 mi SSW 11.5 mph 18.4 mph N/A   Clear
2:35 PM 39.6 °F 32.5 °F 21.4 °F 48% 29.60 in 10.0 mi SW 11.5 mph 19.6 mph N/A   Clear
2:55 PM 40.6 °F 33.0 °F 21.9 °F 47% 29.59 in 10.0 mi SW 13.8 mph 23.0 mph N/A   Clear
3:10 PM 39.9 °F 31.8 °F 22.1 °F 49% 29.60 in 10.0 mi SW 15.0 mph 19.6 mph N/A   Clear
3:35 PM 39.6 °F 32.5 °F 22.5 °F 50% 29.60 in 10.0 mi SW 11.5 mph 20.7 mph N/A   Clear
3:50 PM 40.1 °F 32.4 °F 22.8 °F 50% 29.59 in 10.0 mi WSW 13.8 mph 18.4 mph N/A   Clear
4:10 PM 40.1 °F 33.6 °F 22.8 °F 50% 29.59 in 10.0 mi SW 10.4 mph 16.1 mph N/A   Clear
4:35 PM 39.6 °F 34.7 °F 23.4 °F 52% 29.58 in 10.0 mi WSW 6.9 mph 17.3 mph N/A   Clear
4:55 PM 40.1 °F 33.6 °F 23.9 °F 52% 29.58 in 10.0 mi SW 10.4 mph 16.1 mph N/A   Clear
5:15 PM 40.1 °F 34.1 °F 24.1 °F 53% 29.58 in 10.0 mi SW 9.2 mph 16.1 mph N/A   Clear
5:35 PM 39.9 °F 35.8 °F 24.4 °F 54% 29.58 in 10.0 mi WSW 5.8 mph - N/A   Mostly Cloudy
5:55 PM 40.1 °F 35.3 °F 24.6 °F 54% 29.59 in 10.0 mi WSW 6.9 mph - N/A   Overcast
6:15 PM 39.9 °F 35.1 °F 25.0 °F 55% 29.59 in 10.0 mi WSW 6.9 mph - N/A   Overcast
6:35 PM 39.4 °F 35.2 °F 25.3 °F 57% 29.58 in 10.0 mi WSW 5.8 mph - N/A   Overcast
6:55 PM 39.2 °F 35.9 °F 25.5 °F 58% 29.59 in 10.0 mi WSW 4.6 mph - N/A   Overcast
7:15 PM 38.8 °F 35.4 °F 25.5 °F 59% 29.60 in 10.0 mi WSW 4.6 mph - N/A   Overcast
7:35 PM 38.5 °F 32.7 °F 25.7 °F 60% 29.60 in 10.0 mi WSW 8.1 mph - N/A   Overcast
7:55 PM 38.3 °F 34.8 °F 26.1 °F 61% 29.60 in 10.0 mi WSW 4.6 mph - N/A   Mostly Cloudy
8:15 PM 38.3 °F 33.2 °F 26.4 °F 62% 29.61 in 10.0 mi WSW 6.9 mph - N/A   Overcast
8:35 PM 37.9 °F 34.4 °F 26.6 °F 64% 29.61 in 10.0 mi WSW 4.6 mph - N/A   Overcast
8:50 PM 37.8 °F 35.3 °F 26.6 °F 64% 29.61 in 10.0 mi WSW 3.5 mph - N/A   Overcast
9:15 PM 37.4 °F 32.8 °F 27.0 °F 66% 29.62 in 10.0 mi WSW 5.8 mph - N/A   Overcast
9:35 PM 37.4 °F 32.8 °F 27.1 °F 66% 29.61 in 10.0 mi West 5.8 mph - N/A   Overcast
9:55 PM 37.2 °F 33.6 °F 27.1 °F 67% 29.61 in 10.0 mi WSW 4.6 mph - N/A   Overcast
10:15 PM 36.7 °F 32.9 °F 27.5 °F 69% 29.61 in 10.0 mi WSW 4.6 mph - N/A   Overcast
10:35 PM 36.7 °F 32.0 °F 27.5 °F 69% 29.61 in 10.0 mi WSW 5.8 mph - N/A   Overcast
10:55 PM 36.3 °F 32.5 °F 27.5 °F 70% 29.60 in 10.0 mi WSW 4.6 mph - N/A   Overcast
11:15 PM 35.8 °F - 27.5 °F 72% 29.60 in 10.0 mi Calm Calm - N/A   Overcast
11:35 PM 35.6 °F 32.8 °F 27.5 °F 72% 29.60 in 10.0 mi WSW 3.5 mph - N/A   Overcast
11:55 PM 35.1 °F - 27.5 °F 74% 29.60 in 10.0 mi Calm Calm - N/A   Overcast
12:15 AM 34.9 °F 32.0 °F 27.9 °F 76% 29.60 in 10.0 mi SW 3.5 mph - N/A   Overcast
12:35 AM 34.7 °F - 27.9 °F 76% 29.60 in 10.0 mi Calm Calm - N/A   Overcast
12:55 AM 34.3 °F - 27.9 °F 77% 29.59 in 10.0 mi Calm Calm - N/A   Overcast